SCP
0 0 0 0 0 0 0 0 0 0 0 0 0 0 0 -0 -0 -0 -0 0 0 0 0 0 0 0 0 1 1 1 1 1 0 0 0 1 1 1 0 0 0 0 0
0 0 0 0 0 0 0 0 0 0 0 0 0 0 0 0 0 -0 -0 -0 0 0 0 0 0 0 0 0 1 1 1 1 1 0 0 0 1 1 1 0 0 0 0
0 0 0 0 0 0 0 0 0 0 0 0 0 0 0 0 0 0 0 0 0 0 0 0 0 0 0 0 1 1 1 1 1 1 0 0 1 1 1 0 0 0 0
0 0 1 0 0 0 0 0 0 0 0 0 0 0 0 0 0 -0 -0 0 0 0 0 0 0 0 0 0 0 1 1 1 1 1 0 0 0 1 1 1 1 0 0
0 1 1 0 0 0 0 0 0 0 0 0 0 0 0 0 0 0 0 0 0 0 0 0 0 0 0 0 0 1 1 1 1 0 0 0 0 0 1 1 1 1 0
0 1 1 1 0 1 1 0 0 0 0 0 0 0 0 0 0 0 0 0 0 0 0 0 0 0 0 0 0 1 1 1 1 1 0 0 0 0 0 1 1 1 1
0 0 1 1 1 1 1 1 0 0 0 0 0 0 0 0 0 0 0 0 0 0 0 0 0 0 1 1 2 1 1 1 1 1 1 0 0 0 0 0 1 1 1
0 0 0 0 0 0 0 0 0 0 0 0 0 0 0 0 0 0 0 0 0 0 0 0 0 0 0 1 1 1 1 1 1 1 1 1 1 0 0 0 0 1 1
0 0 0 0 0 0 0 0 0 0 0 0 0 0 0 0 0 0 0 0 0 0 0 0 0 0 0 0 0 0 1 1 1 0 0 0 1 0 0 0 0 1 1
0 0 0 0 0 0 0 0 0 0 0 0 0 0 0 0 0 0 0 0 0 0 0 0 0 0 0 0 0 0 0 1 1 1 1 1 0 0 0 0 0 0 1
0 0 0 0 0 0 0 0 0 0 0 0 0 0 0 0 0 0 0 0 0 0 0 0 0 0 0 0 0 0 0 1 0 0 0 0 0 0 1 0 0 0 0
0 0 0 0 0 0 0 0 0 0 0 0 0 0 0 0 0 0 0 0 0 0 0 0 0 -0 0 0 0 0 0 0 0 0 0 0 0 0 0 0 0 0 0
0 0 0 0 0 0 0 0 0 0 0 0 0 0 0 0 0 0 0 0 0 0 0 0 0 0 0 0 0 0 0 0 0 0 0 0 0 0 0 0 0 0 0
0 0 0 0 0 0 0 0 0 0 0 0 0 0 0 0 0 0 0 0 0 0 0 0 0 0 0 0 0 0 0 0 0 0 0 0 0 0 0 0 0 0 0
0 0 0 0 0 0 0 0 0 0 0 0 0 0 0 0 0 0 0 0 0 0 0 0 0 0 0 0 0 0 0 0 0 0 0 0 0 0 0 0 0 0 0
0 0 0 0 0 0 0 0 0 0 0 0 0 0 0 0 0 0 0 0 0 -0 0 0 0 0 0 0 0 0 0 -0 0 0 0 0 0 0 0 0 0 0 0
0 0 0 0 0 0 0 0 0 0 0 0 0 0 0 0 0 0 0 0 0 0 0 -0 0 0 0 0 0 0 0 0 0 0 0 0 0 0 0 0 0 0 0
0 0 0 0 0 0 0 0 0 0 0 0 0 0 0 0 -0 0 0 0 0 0 0 0 0 0 0 0 0 0 0 0 0 0 -0 -0 -0 -0 0 0 0 0 0
0 0 0 0 -0 0 0 0 0 0 0 0 0 0 0 0 -0 -0 0 0 -0 0 0 0 0 0 0 0 0 0 0 0 0 -0 -0 -0 -0 -0 -0 -0 0 0 0
0 0 0 -0 -0 0 0 0 0 0 0 0 0 -0 -0 -0 -0 -0 -0 -0 -0 -0 0 0 0 0 0 0 0 0 0 0 0 0 -0 -0 -0 -0 -0 -0 -0 -0 -0
0 0 0 -0 0 0 0 0 0 0 0 0 -0 -0 0 0 0 -0 0 -0 0 0 0 0 0 0 0 0 0 0 0 0 0 0 0 0 0 0 0 -0 -0 -0 -0
0 0 0 -0 0 0 0 0 0 0 0 0 0 0 0 0 -0 -0 -0 -0 0 0 0 0 0 0 0 0 0 0 0 0 0 0 0 0 0 0 0 0 -0 -0 -0
0 0 0 0 0 0 0 0 0 0 0 0 0 0 0 0 0 0 -0 -0 0 0 0 0 0 0 0 0 0 0 0 0 0 0 0 0 0 0 0 0 -0 -0 -0
0 0 0 0 0 0 0 0 0 0 0 0 0 0 0 0 0 0 0 0 0 0 0 0 0 0 0 0 0 0 0 0 0 0 0 0 0 0 0 0 0 0 0
0 0 0 0 0 0 0 0 0 0 0 0 0 0 0 0 0 0 0 0 0 0 0 0 0 0 0 0 0 0 0 0 0 0 0 0 0 0 0 0 0 -0 0
0 0 0 0 0 0 0 0 0 0 -0 -0 0 0 -0 0 0 0 0 0 0 0 0 0 0 0 0 0 0 0 0 0 0 0 0 0 0 0 0 0 0 0 0
Wind_Speed_500mb
36 26 26 25 28 30 29 32 31 32 32 35 37 39 43 45 49 54 58 57 49 45 47 46 57 58 57 56 52 50 45 37 32 27 22 26 36 42 43 43 40 38 36
35 30 28 25 33 38 40 40 39 38 40 38 40 46 46 44 53 59 63 61 57 51 46 47 51 63 62 62 59 57 49 43 37 30 23 24 32 40 43 46 45 42 40
36 29 27 33 38 44 44 43 45 45 48 45 45 48 50 49 51 57 61 63 59 59 54 48 50 58 66 65 68 67 55 48 45 36 29 25 30 36 39 46 49 45 43
31 32 35 38 43 52 53 49 48 51 53 48 44 47 50 54 57 61 67 55 50 53 57 53 47 57 68 68 67 66 64 54 50 44 35 28 27 33 36 35 44 50 49
36 39 41 47 50 52 51 51 52 55 50 43 36 35 47 53 60 60 62 52 46 44 46 49 41 50 62 70 63 65 67 58 55 51 42 33 27 24 30 41 37 40 51
45 45 46 50 51 50 50 55 54 54 53 49 45 49 59 63 49 48 49 35 28 35 34 38 30 28 50 60 61 60 63 61 60 57 50 41 35 31 32 40 43 43 42
47 46 43 39 39 42 43 43 43 41 28 40 51 40 42 38 26 34 41 27 26 23 31 28 29 29 34 41 55 58 56 57 58 60 56 47 39 35 32 38 50 50 51
48 48 41 39 37 35 36 37 36 38 45 40 35 38 43 38 32 14 24 33 34 30 21 22 24 27 29 37 47 51 55 57 58 53 55 47 44 40 39 43 47 58 58
34 34 35 37 39 37 32 35 35 35 34 31 36 31 25 20 30 29 27 31 28 27 26 33 31 20 23 28 37 44 45 54 44 48 43 45 49 46 46 46 49 56 63
39 41 42 41 37 34 38 33 30 38 37 36 33 27 31 36 26 36 22 25 29 34 32 27 30 25 25 17 16 26 37 37 41 40 43 51 53 50 51 44 47 52 56
49 49 48 47 46 44 43 42 38 32 34 31 29 35 37 39 37 32 37 39 27 25 29 31 23 34 21 15 21 22 26 35 40 40 48 52 53 49 44 41 44 50 53
46 44 41 39 39 36 34 32 32 29 30 32 30 26 28 30 33 29 32 29 31 27 22 24 24 24 34 34 25 19 29 30 37 42 45 46 46 43 45 43 46 50 48
32 30 32 31 27 24 24 28 29 24 23 25 29 32 31 28 30 27 29 32 20 18 16 17 20 20 27 28 32 27 24 27 27 33 38 42 41 38 39 40 42 51 49
30 29 29 28 26 27 29 30 30 30 29 30 29 28 27 26 25 24 24 19 20 14 13 8 11 15 14 19 12 16 20 24 24 26 28 32 36 40 39 36 36 40 45
34 32 32 31 30 30 30 30 27 28 29 29 31 32 28 26 22 19 18 18 14 7 8 10 14 20 7 8 12 16 18 24 23 24 25 30 31 37 40 43 39 37 40
34 33 32 33 33 34 36 32 27 33 35 36 34 24 28 24 22 19 15 14 10 11 4 9 13 16 5 13 20 12 11 14 15 19 24 26 30 34 36 40 45 45 42
35 34 35 36 39 42 36 36 33 30 31 30 28 22 24 24 14 10 12 12 8 3 5 7 9 10 8 19 8 8 11 13 7 13 18 9 9 13 18 33 41 44 45
35 34 39 38 43 39 34 31 30 28 31 30 29 22 13 19 14 11 9 11 3 4 5 6 15 1 6 17 12 9 11 18 23 20 14 14 10 8 8 7 25 37 42
34 34 40 39 47 37 32 32 33 33 25 32 33 26 6 15 18 5 9 11 7 8 5 6 9 5 14 17 10 15 29 48 56 65 45 29 20 22 21 19 25 32 37
36 35 42 47 45 34 37 36 31 30 28 33 33 29 22 13 1 4 10 14 16 13 8 12 9 9 7 7 6 18 14 34 35 50 59 69 66 52 35 28 27 28 29
38 37 40 49 45 33 37 34 32 34 32 31 30 29 28 24 23 25 25 20 20 17 16 14 19 16 18 21 31 38 29 41 45 46 42 53 55 57 66 71 62 37 31
39 35 41 47 48 31 31 30 28 29 30 33 32 29 30 29 24 24 28 20 16 16 18 20 22 24 32 30 32 36 35 42 56 51 51 48 47 57 51 52 48 47 56
38 33 36 47 49 36 28 26 26 30 33 42 41 35 29 31 30 27 20 23 24 20 19 29 28 23 15 18 15 12 17 22 46 49 51 54 45 51 54 45 41 38 42
37 30 35 46 46 39 31 28 23 26 30 33 40 45 39 39 35 27 24 39 41 39 30 23 13 19 15 16 13 15 22 32 33 37 42 46 45 53 49 51 45 40 38
37 30 33 42 46 41 33 28 24 27 29 34 33 32 36 40 42 46 58 53 43 44 44 40 38 30 26 25 25 23 30 30 31 29 32 36 38 48 48 51 48 44 45
32 28 29 35 44 44 34 31 31 38 45 57 61 60 58 55 49 50 47 39 36 33 26 35 37 39 40 37 29 22 16 15 17 15 25 26 25 20 22 33 40 40 43
Wind_Direction_500mb
298 299 282 276 278 283 272 273 275 286 295 303 307 314 325 329 329 327 326 319 308 298 289 273 251 247 245 239 230 234 236 235 240 251 266 263 248 239 235 234 230 224 223
296 298 295 288 292 292 281 280 278 283 284 291 298 301 306 316 320 323 323 318 309 302 293 283 266 246 242 239 228 230 234 235 230 242 254 263 249 243 237 232 232 227 224
290 299 298 296 294 293 290 287 279 284 285 285 292 300 305 309 316 319 316 315 307 303 298 288 269 250 238 238 231 228 232 229 232 230 238 256 253 241 240 235 231 230 228
282 296 297 299 299 298 297 291 280 283 286 286 293 296 296 303 312 313 314 308 300 298 300 299 278 252 236 236 235 232 232 231 227 230 231 247 248 242 240 239 234 231 229
292 295 297 301 301 299 296 295 293 291 286 293 291 294 297 305 305 304 306 301 298 296 299 302 284 255 239 234 233 234 232 233 224 230 227 235 240 248 250 245 242 234 231
296 298 296 299 301 299 297 295 294 295 295 293 293 291 297 301 300 294 296 296 293 298 302 306 290 260 244 237 234 234 231 232 225 226 227 232 241 250 254 251 247 242 237
301 305 309 307 304 300 300 299 302 303 303 303 302 301 306 302 299 292 285 283 281 294 290 285 274 258 245 236 233 234 229 226 224 222 227 233 240 252 260 257 248 241 240
312 313 312 309 307 307 307 307 308 308 304 304 300 307 302 296 298 275 296 293 273 271 281 285 269 259 235 224 216 214 217 220 220 218 226 231 243 254 266 268 257 245 235
330 325 320 316 311 307 306 304 307 306 301 299 297 293 302 293 305 297 304 293 279 274 275 276 284 282 248 239 225 217 213 221 218 225 229 239 245 255 261 267 257 245 237
327 323 320 318 315 312 309 310 308 307 307 305 299 294 290 290 298 302 296 287 280 281 277 292 276 292 248 243 219 224 212 214 223 227 239 254 257 260 264 256 251 240 237
327 326 325 324 323 322 320 318 314 308 305 301 302 304 303 298 295 284 296 301 281 273 281 278 289 267 275 264 248 246 240 244 251 254 254 256 258 257 251 246 240 236 234
337 336 338 339 338 335 334 334 324 311 295 297 302 310 310 313 295 292 286 304 292 304 274 272 268 257 271 267 247 244 244 237 245 250 259 259 256 250 242 240 237 234 232
348 354 354 354 357 2 349 341 344 344 335 319 308 299 296 297 295 289 293 290 285 298 294 281 258 264 249 247 242 241 249 247 248 256 258 254 247 240 237 235 235 230 232
4 359 352 347 340 333 329 329 328 326 315 313 309 307 305 297 290 288 289 297 296 296 287 284 291 267 248 236 239 223 238 254 259 258 254 250 239 233 235 230 229 225 224
1 355 352 352 348 342 335 333 326 314 312 311 305 299 302 290 287 285 284 279 269 309 313 310 356 338 269 210 215 218 238 259 272 253 246 246 235 237 237 230 227 224 219
5 2 5 5 359 351 343 332 318 316 307 304 300 297 284 277 276 268 270 281 257 265 300 333 7 343 188 166 189 204 236 263 269 259 258 256 244 240 235 232 225 222 218
6 10 11 359 351 348 349 346 329 327 339 339 330 298 292 237 278 244 265 281 276 269 257 0 322 340 30 169 188 201 231 245 218 214 253 249 229 208 228 233 223 216 212
4 6 359 351 350 353 349 360 14 10 356 356 350 325 298 216 242 259 229 271 222 170 121 52 69 332 259 129 123 185 193 162 138 134 172 187 160 147 170 217 194 198 198
8 7 6 7 2 9 24 20 13 10 16 14 16 31 102 172 217 270 228 239 152 158 122 74 125 205 146 135 124 134 130 121 110 103 104 108 117 118 84 115 140 164 179
17 16 9 13 14 28 27 24 21 32 42 38 42 43 63 90 208 304 129 127 157 136 131 102 95 138 128 94 3 151 136 107 94 88 98 89 85 90 106 100 115 142 159
18 18 17 20 20 32 27 27 38 47 39 44 47 53 59 68 90 85 84 126 122 131 119 107 117 111 97 107 116 117 135 104 113 109 102 94 93 89 83 83 96 141 151
18 20 24 21 20 32 36 36 35 46 46 43 51 57 56 69 90 88 98 98 120 122 117 121 113 110 106 107 113 107 108 105 92 101 102 101 104 98 88 87 92 91 90
16 23 26 24 25 34 46 40 37 49 61 60 57 59 64 74 83 81 91 96 107 105 112 119 106 95 101 120 91 125 155 105 109 101 99 93 95 96 96 89 91 99 102
17 31 32 30 32 38 45 44 37 59 74 70 67 69 73 85 81 69 88 103 103 102 98 95 76 110 114 157 103 106 114 124 116 111 97 88 95 96 98 96 93 99 105
24 38 38 33 38 39 43 43 47 69 73 69 70 74 70 75 79 86 85 91 93 88 76 98 82 85 108 106 124 119 107 107 104 102 97 98 98 102 101 99 96 98 101
28 39 46 38 43 46 49 53 66 84 87 83 83 82 77 77 84 87 84 81 92 90 74 78 74 89 91 89 85 88 88 108 102 88 117 109 119 104 86 99 107 112 114
Wind_Speed_850mb
36 26 26 25 28 30 29 32 31 32 32 35 37 39 43 45 49 54 58 57 49 45 47 46 57 58 57 56 52 50 45 37 32 27 22 26 36 42 43 43 40 38 36
35 30 28 25 33 38 40 40 39 38 40 38 40 46 46 44 53 59 63 61 57 51 46 47 51 63 62 62 59 57 49 43 37 30 23 24 32 40 43 46 45 42 40
36 29 27 33 38 44 44 43 45 45 48 45 45 48 50 49 51 57 61 63 59 59 54 48 50 58 66 65 68 67 55 48 45 36 29 25 30 36 39 46 49 45 43
31 32 35 38 43 52 53 49 48 51 53 48 44 47 50 54 57 61 67 55 50 53 57 53 47 57 68 68 67 66 64 54 50 44 35 28 27 33 36 35 44 50 49
36 39 41 47 50 52 51 51 52 55 50 43 36 35 47 53 60 60 62 52 46 44 46 49 41 50 62 70 63 65 67 58 55 51 42 33 27 24 30 41 37 40 51
45 45 46 50 51 50 50 55 54 54 53 49 45 49 59 63 49 48 49 35 28 35 34 38 30 28 50 60 61 60 63 61 60 57 50 41 35 31 32 40 43 43 42
47 46 43 39 39 42 43 43 43 41 28 40 51 40 42 38 26 34 41 27 26 23 31 28 29 29 34 41 55 58 56 57 58 60 56 47 39 35 32 38 50 50 51
48 48 41 39 37 35 36 37 36 38 45 40 35 38 43 38 32 14 24 33 34 30 21 22 24 27 29 37 47 51 55 57 58 53 55 47 44 40 39 43 47 58 58
34 34 35 37 39 37 32 35 35 35 34 31 36 31 25 20 30 29 27 31 28 27 26 33 31 20 23 28 37 44 45 54 44 48 43 45 49 46 46 46 49 56 63
39 41 42 41 37 34 38 33 30 38 37 36 33 27 31 36 26 36 22 25 29 34 32 27 30 25 25 17 16 26 37 37 41 40 43 51 53 50 51 44 47 52 56
49 49 48 47 46 44 43 42 38 32 34 31 29 35 37 39 37 32 37 39 27 25 29 31 23 34 21 15 21 22 26 35 40 40 48 52 53 49 44 41 44 50 53
46 44 41 39 39 36 34 32 32 29 30 32 30 26 28 30 33 29 32 29 31 27 22 24 24 24 34 34 25 19 29 30 37 42 45 46 46 43 45 43 46 50 48
32 30 32 31 27 24 24 28 29 24 23 25 29 32 31 28 30 27 29 32 20 18 16 17 20 20 27 28 32 27 24 27 27 33 38 42 41 38 39 40 42 51 49
30 29 29 28 26 27 29 30 30 30 29 30 29 28 27 26 25 24 24 19 20 14 13 8 11 15 14 19 12 16 20 24 24 26 28 32 36 40 39 36 36 40 45
34 32 32 31 30 30 30 30 27 28 29 29 31 32 28 26 22 19 18 18 14 7 8 10 14 20 7 8 12 16 18 24 23 24 25 30 31 37 40 43 39 37 40
34 33 32 33 33 34 36 32 27 33 35 36 34 24 28 24 22 19 15 14 10 11 4 9 13 16 5 13 20 12 11 14 15 19 24 26 30 34 36 40 45 45 42
35 34 35 36 39 42 36 36 33 30 31 30 28 22 24 24 14 10 12 12 8 3 5 7 9 10 8 19 8 8 11 13 7 13 18 9 9 13 18 33 41 44 45
35 34 39 38 43 39 34 31 30 28 31 30 29 22 13 19 14 11 9 11 3 4 5 6 15 1 6 17 12 9 11 18 23 20 14 14 10 8 8 7 25 37 42
34 34 40 39 47 37 32 32 33 33 25 32 33 26 6 15 18 5 9 11 7 8 5 6 9 5 14 17 10 15 29 48 56 65 45 29 20 22 21 19 25 32 37
36 35 42 47 45 34 37 36 31 30 28 33 33 29 22 13 1 4 10 14 16 13 8 12 9 9 7 7 6 18 14 34 35 50 59 69 66 52 35 28 27 28 29
38 37 40 49 45 33 37 34 32 34 32 31 30 29 28 24 23 25 25 20 20 17 16 14 19 16 18 21 31 38 29 41 45 46 42 53 55 57 66 71 62 37 31
39 35 41 47 48 31 31 30 28 29 30 33 32 29 30 29 24 24 28 20 16 16 18 20 22 24 32 30 32 36 35 42 56 51 51 48 47 57 51 52 48 47 56
38 33 36 47 49 36 28 26 26 30 33 42 41 35 29 31 30 27 20 23 24 20 19 29 28 23 15 18 15 12 17 22 46 49 51 54 45 51 54 45 41 38 42
37 30 35 46 46 39 31 28 23 26 30 33 40 45 39 39 35 27 24 39 41 39 30 23 13 19 15 16 13 15 22 32 33 37 42 46 45 53 49 51 45 40 38
37 30 33 42 46 41 33 28 24 27 29 34 33 32 36 40 42 46 58 53 43 44 44 40 38 30 26 25 25 23 30 30 31 29 32 36 38 48 48 51 48 44 45
32 28 29 35 44 44 34 31 31 38 45 57 61 60 58 55 49 50 47 39 36 33 26 35 37 39 40 37 29 22 16 15 17 15 25 26 25 20 22 33 40 40 43
Wind_Direction_850mb
298 299 282 276 278 283 272 273 275 286 295 303 307 314 325 329 329 327 326 319 308 298 289 273 251 247 245 239 230 234 236 235 240 251 266 263 248 239 235 234 230 224 223
296 298 295 288 292 292 281 280 278 283 284 291 298 301 306 316 320 323 323 318 309 302 293 283 266 246 242 239 228 230 234 235 230 242 254 263 249 243 237 232 232 227 224
290 299 298 296 294 293 290 287 279 284 285 285 292 300 305 309 316 319 316 315 307 303 298 288 269 250 238 238 231 228 232 229 232 230 238 256 253 241 240 235 231 230 228
282 296 297 299 299 298 297 291 280 283 286 286 293 296 296 303 312 313 314 308 300 298 300 299 278 252 236 236 235 232 232 231 227 230 231 247 248 242 240 239 234 231 229
292 295 297 301 301 299 296 295 293 291 286 293 291 294 297 305 305 304 306 301 298 296 299 302 284 255 239 234 233 234 232 233 224 230 227 235 240 248 250 245 242 234 231
296 298 296 299 301 299 297 295 294 295 295 293 293 291 297 301 300 294 296 296 293 298 302 306 290 260 244 237 234 234 231 232 225 226 227 232 241 250 254 251 247 242 237
301 305 309 307 304 300 300 299 302 303 303 303 302 301 306 302 299 292 285 283 281 294 290 285 274 258 245 236 233 234 229 226 224 222 227 233 240 252 260 257 248 241 240
312 313 312 309 307 307 307 307 308 308 304 304 300 307 302 296 298 275 296 293 273 271 281 285 269 259 235 224 216 214 217 220 220 218 226 231 243 254 266 268 257 245 235
330 325 320 316 311 307 306 304 307 306 301 299 297 293 302 293 305 297 304 293 279 274 275 276 284 282 248 239 225 217 213 221 218 225 229 239 245 255 261 267 257 245 237
327 323 320 318 315 312 309 310 308 307 307 305 299 294 290 290 298 302 296 287 280 281 277 292 276 292 248 243 219 224 212 214 223 227 239 254 257 260 264 256 251 240 237
327 326 325 324 323 322 320 318 314 308 305 301 302 304 303 298 295 284 296 301 281 273 281 278 289 267 275 264 248 246 240 244 251 254 254 256 258 257 251 246 240 236 234
337 336 338 339 338 335 334 334 324 311 295 297 302 310 310 313 295 292 286 304 292 304 274 272 268 257 271 267 247 244 244 237 245 250 259 259 256 250 242 240 237 234 232
348 354 354 354 357 2 349 341 344 344 335 319 308 299 296 297 295 289 293 290 285 298 294 281 258 264 249 247 242 241 249 247 248 256 258 254 247 240 237 235 235 230 232
4 359 352 347 340 333 329 329 328 326 315 313 309 307 305 297 290 288 289 297 296 296 287 284 291 267 248 236 239 223 238 254 259 258 254 250 239 233 235 230 229 225 224
1 355 352 352 348 342 335 333 326 314 312 311 305 299 302 290 287 285 284 279 269 309 313 310 356 338 269 210 215 218 238 259 272 253 246 246 235 237 237 230 227 224 219
5 2 5 5 359 351 343 332 318 316 307 304 300 297 284 277 276 268 270 281 257 265 300 333 7 343 188 166 189 204 236 263 269 259 258 256 244 240 235 232 225 222 218
6 10 11 359 351 348 349 346 329 327 339 339 330 298 292 237 278 244 265 281 276 269 257 0 322 340 30 169 188 201 231 245 218 214 253 249 229 208 228 233 223 216 212
4 6 359 351 350 353 349 360 14 10 356 356 350 325 298 216 242 259 229 271 222 170 121 52 69 332 259 129 123 185 193 162 138 134 172 187 160 147 170 217 194 198 198
8 7 6 7 2 9 24 20 13 10 16 14 16 31 102 172 217 270 228 239 152 158 122 74 125 205 146 135 124 134 130 121 110 103 104 108 117 118 84 115 140 164 179
17 16 9 13 14 28 27 24 21 32 42 38 42 43 63 90 208 304 129 127 157 136 131 102 95 138 128 94 3 151 136 107 94 88 98 89 85 90 106 100 115 142 159
18 18 17 20 20 32 27 27 38 47 39 44 47 53 59 68 90 85 84 126 122 131 119 107 117 111 97 107 116 117 135 104 113 109 102 94 93 89 83 83 96 141 151
18 20 24 21 20 32 36 36 35 46 46 43 51 57 56 69 90 88 98 98 120 122 117 121 113 110 106 107 113 107 108 105 92 101 102 101 104 98 88 87 92 91 90
16 23 26 24 25 34 46 40 37 49 61 60 57 59 64 74 83 81 91 96 107 105 112 119 106 95 101 120 91 125 155 105 109 101 99 93 95 96 96 89 91 99 102
17 31 32 30 32 38 45 44 37 59 74 70 67 69 73 85 81 69 88 103 103 102 98 95 76 110 114 157 103 106 114 124 116 111 97 88 95 96 98 96 93 99 105
24 38 38 33 38 39 43 43 47 69 73 69 70 74 70 75 79 86 85 91 93 88 76 98 82 85 108 106 124 119 107 107 104 102 97 98 98 102 101 99 96 98 101
28 39 46 38 43 46 49 53 66 84 87 83 83 82 77 77 84 87 84 81 92 90 74 78 74 89 91 89 85 88 88 108 102 88 117 109 119 104 86 99 107 112 114